This demonstration page uses our WeatherBlox Daily Observations layout. Learn more.

Left ArrowRight Arrow

39.95238, -75.16362

Hourly Observations for June 28, 2022

Temp ( °F °C ) Dew Point ( °F °C ) Humidity (%) Winds ( mph kmh ) Pressure ( in mb ) Visibility ( mi km ) Precip ( " mm )
12:54 am 00:54 Mostly Clear 74 23.3 58 14.4 57 57 NW 6 9 30.03 1017 10 16 0.00 0.00
1:54 am 01:54 Mostly Clear 71 21.7 59 15 66 66 NNW 13 20 30.04 1017 10 16 0.00 0.00
2:54 am 02:54 Mostly Clear 70 21.1 55 12.8 59 59 NNW 14 22 30.06 1018 10 16 0.00 0.00
3:54 am 03:54 Partly Cloudy 69 20.6 54 12.2 59 59 N 9 15 30.08 1019 10 16 0.00 0.00
4:54 am 04:54 Mostly Cloudy 68 20 53 11.7 59 59 N 8 13 30.10 1019 10 16 0.00 0.00
5:54 am 05:54 Partly Cloudy 66 18.9 53 11.7 63 63 N 6 9 30.11 1020 10 16 0.00 0.00
6:54 am 06:54 Partly Cloudy 68 20 53 11.7 59 59 NNW 10 17 30.13 1020 10 16 0.00 0.00
7:54 am 07:54 Partly Cloudy 70 21.1 52 11.1 53 53 NNW 10 17 30.16 1021 10 16 0.00 0.00
8:54 am 08:54 Mostly Sunny 71 21.7 52 11.1 51 51 N 12 19 30.17 1022 10 16 0.00 0.00
9:54 am 09:54 Mostly Sunny 73 22.8 53 11.7 50 50 NE 10 17 30.17 1022 10 16 0.00 0.00
10:54 am 10:54 Mostly Sunny 75 23.9 52 11.1 45 45 NNW 8 13 30.17 1022 10 16 0.00 0.00
11:54 am 11:54 Partly Cloudy 76 24.4 51 10.6 42 42 VRB 5 7 30.17 1022 10 16 0.00 0.00
12:54 pm 12:54 Partly Cloudy 77 25 49 9.4 37 37 undefined N/A 30.18 1022 10 16 0.00 0.00
12:58 pm 12:58 Partly Cloudy 78 25.6 49 9.4 36 36 WNW 10 17 30.18 1022 10 16 0.00 0.00
1:54 pm 13:54 Partly Cloudy 79 26.1 51 10.6 38 38 WNW 10 17 30.17 1022 10 16 0.00 0.00
2:54 pm 14:54 Partly Cloudy 79 26.1 51 10.6 38 38 N 6 9 30.17 1022 10 16 0.00 0.00
3:54 pm 15:54 Partly Cloudy 79 26.1 50 10 36 36 undefined N/A 30.16 1021 10 16 0.00 0.00
4:13 pm 16:13 Mostly Cloudy 79 26.1 50 10 36 36 VRB 3 6 30.16 1021 10 16 0.00 0.00
4:54 pm 16:54 Partly Cloudy 80 26.7 51 10.6 37 37 W 8 13 30.15 1021 10 16 0.00 0.00
5:54 pm 17:54 Partly Cloudy 79 26.1 50 10 36 36 NNW 3 6 30.15 1021 10 16 0.00 0.00
6:54 pm 18:54 Partly Cloudy 80 26.7 51 10.6 37 37 W 8 13 30.16 1021 10 16 0.00 0.00
7:54 pm 19:54 Partly Cloudy 79 26.1 51 10.6 38 38 WNW 9 15 30.17 1022 10 16 0.00 0.00
8:54 pm 20:54 Mostly Cloudy 78 25.6 51 10.6 39 39 W 6 9 30.18 1022 10 16 0.00 0.00
9:54 pm 21:54 Mostly Cloudy 76 24.4 53 11.7 45 45 W 7 11 30.19 1022 10 16 0.00 0.00
10:54 pm 22:54 Mostly Cloudy 74 23.3 55 12.8 52 52 WSW 5 7 30.20 1023 10 16 0.00 0.00
11:54 pm 23:54 Partly Cloudy 69 20.6 58 14.4 68 68 VRB 5 7 30.21 1023 10 16 0.00 0.00

Powered by AerisWeather